Terug naar catalogus

ARIANE 42P+3 R/B

ActiefHEO
NORAD 23847·ROCKET BODY·🇫🇷 France

Gelanceerd Apr 20, 1996 vanaf Guiana Space Centre

Loading…

Volgende Passages (komende 24 uur)

TLE

VersSource: Space-Track

Epoch: Sep 14, 2026, 12:35 UTC

1 23847U 96022B   26257.52435750  .00001161  00000-0  66208-3 0  9990
2 23847   6.9409 302.6367 6536258 149.5980 274.1844  3.22892762309229

Volg ARIANE 42P+3 R/B in realtime met AllMySat

Download on the App Store